Location: C�an Torras
(41.5052°N, 1.9280°E)
Time: 21:34:38
(UTC+00:00)

SJ-11-01 - Pass Details

Date: 20 January 2021
Orbit: 684 x 700 km, 98.0° (Epoch: 03 March)

Event Time Altitude Azimuth Distance (km) Brightness Sun altitude
Rises 18:46:03 0° 168° (SSE) 3,057 7.6 -20.9°
Reaches altitude 10° 18:48:17 10° 169° (SSE) 2,142 6.8 -21.3°
Maximum altitude 18:52:59 83° 256° (WSW) 701 4.3 -22.1°
Drops below altitude 10° 18:57:42 10° 346° (NNW) 2,148 6.9 -23.0°
Sets 18:59:57 0° 347° (NNW) 3,066 7.7 -23.4°
